This is the latest recevied weather packets stored in our database for station/object DB0ADS-6. If no packets are shown the sender has not sent any weather packets the latest 1 day(s).
| Time | Temp. | Humidity | Pressure | Rain* | Wind** | Luminosity | Snow |
|---|---|---|---|---|---|---|---|
| 1777990571 | 20° C | 53% | 1003.8 hPa | 0 mm | 0.45 m/s, 0° | - | - |
| 1777990269 | 20° C | 53% | 1003.8 hPa | 0 mm | 0.89 m/s, 349° | - | - |
| 1777989967 | 20° C | 53% | 1003.8 hPa | 0 mm | 0.45 m/s, 338° | - | - |
| 1777989665 | 20° C | 52% | 1003.9 hPa | 0 mm | 0.45 m/s, 349° | - | - |
| 1777989364 | 20.56° C | 52% | 1004 hPa | 0 mm | 0.45 m/s, 354° | - | - |
| 1777989062 | 20.56° C | 51% | 1004.1 hPa | 0 mm | 0.89 m/s, 19° | - | - |
| 1777988761 | 20.56° C | 51% | 1004.1 hPa | 0 mm | 0.45 m/s, 0° | - | - |
| 1777988459 | 20.56° C | 52% | 1004.1 hPa | 0 mm | 0.89 m/s, 337° | - | - |
| 1777988157 | 21.11° C | 50% | 1004.2 hPa | 0 mm | 1.79 m/s, 6° | - | - |
| 1777987858 | 21.11° C | 51% | 1004.2 hPa | 0 mm | 0.89 m/s, 1° | - | - |
| 1777987573 | 21.11° C | 50% | 1004.2 hPa | 0 mm | 0.89 m/s, 321° | - | - |
| 1777987253 | 21.67° C | 50% | 1004.3 hPa | 0 mm | 0.89 m/s, 353° | - | - |
| 1777986950 | 21.11° C | 50% | 1004.4 hPa | 0 mm | 0.89 m/s, 3° | - | - |
| 1777986651 | 20.56° C | 52% | 1004.4 hPa | 0 mm | 0.89 m/s, 30° | - | - |
| 1777986346 | 20.56° C | 52% | 1004.5 hPa | 0 mm | 1.79 m/s, 0° | - | - |
| 1777986044 | 20.56° C | 52% | 1004.6 hPa | 0 mm | 0.89 m/s, 341° | - | - |
| 1777985743 | 21.11° C | 52% | 1004.6 hPa | 0 mm | 1.34 m/s, 342° | - | - |
| 1777985441 | 21.11° C | 52% | 1004.6 hPa | 0 mm | 1.34 m/s, 358° | - | - |
| 1777985139 | 21.67° C | 51% | 1004.7 hPa | 0 mm | 1.79 m/s, 38° | - | - |
| 1777984837 | 21.11° C | 52% | 1004.7 hPa | 0 mm | 1.34 m/s, 340° | - | - |
| 1777984535 | 20.56° C | 54% | 1004.8 hPa | 0 mm | 1.79 m/s, 313° | - | - |
| 1777984233 | 20.56° C | 53% | 1004.9 hPa | 0 mm | 2.24 m/s, 308° | - | - |
| 1777983931 | 21.11° C | 53% | 1004.9 hPa | 0 mm | 2.68 m/s, 306° | - | - |
| 1777983630 | 20.56° C | 52% | 1004.9 hPa | 0 mm | 1.79 m/s, 299° | - | - |
| 1777983328 | 21.11° C | 54% | 1004.9 hPa | 0 mm | 2.68 m/s, 343° | - | - |
* Rain latest hour (hover to see other rain measurements)
** Current wind speed in m/s (hover to see current wind gust speed)